GLANE CYVR-CYCD

Flight info

Callsign GLANE
Flight time 0h 23m
Altitude
Route
Aircraft C172

Departure

Time 2026-04-15 13:03
Airport Vancouver International Airport (CYVR)

Arrival

Time 2026-04-15 13:26
Airport Nanaimo Airport (CYCD)
Time Latitude Longitude Altitude Speed Heading
2026-04-15 12:54 49.18177 -123.16679 9 ft 0 kts
2026-04-15 12:55 49.18179 -123.16679 9 ft 0 kts 343°
2026-04-15 12:58 49.18184 -123.16683 9 ft 2 kts 328°
2026-04-15 12:59 49.18201 -123.16687 9 ft 0 kts
2026-04-15 13:00 49.18219 -123.16676 9 ft 7 kts 51°
2026-04-15 13:00 49.18206 -123.16622 9 ft 19 kts 108°
2026-04-15 13:00 49.18188 -123.16381 9 ft 19 kts 94°
2026-04-15 13:01 49.18213 -123.16268 9 ft 9 kts 358°
2026-04-15 13:01 49.18254 -123.16271 9 ft 5 kts 355°
2026-04-15 13:01 49.18337 -123.16264 9 ft 18 kts
2026-04-15 13:01 49.18432 -123.16248 9 ft 22 kts
2026-04-15 13:02 49.18509 -123.16370 9 ft 0 kts 282°
2026-04-15 13:02 49.18528 -123.16545 9 ft 41 kts 281°
2026-04-15 13:02 49.18591 -123.17131 99 ft 60 kts 279°
2026-04-15 13:02 49.18672 -123.17750 272 ft 60 kts 279°
2026-04-15 13:03 49.18738 -123.18443 407 ft 68 kts 276°
2026-04-15 13:03 49.18772 -123.19176 589 ft 70 kts 274°
2026-04-15 13:03 49.18811 -123.19971 739 ft 76 kts 275°
2026-04-15 13:03 49.18828 -123.20759 922 ft 79 kts 270°
2026-04-15 13:04 49.18765 -123.21582 1146 ft 76 kts 261°
2026-04-15 13:04 49.18661 -123.22420 1270 ft 84 kts 261°
2026-04-15 13:04 49.18528 -123.23305 1414 ft 89 kts 258°
2026-04-15 13:04 49.18379 -123.24224 1604 ft 87 kts 258°
2026-04-15 13:05 49.18228 -123.25103 1801 ft 86 kts 254°
2026-04-15 13:05 49.18026 -123.25960 1976 ft 87 kts 248°
2026-04-15 13:05 49.17768 -123.26798 2182 ft 84 kts 244°
2026-04-15 13:05 49.17474 -123.27604 2327 ft 89 kts 239°
2026-04-15 13:06 49.17128 -123.28368 2517 ft 87 kts 234°
2026-04-15 13:06 49.16718 -123.29072 2668 ft 91 kts 225°
2026-04-15 13:06 49.16196 -123.29706 2701 ft 103 kts 217°
2026-04-15 13:06 49.15528 -123.30057 2796 ft 99 kts 209°
2026-04-15 13:07 49.14981 -123.30595 2895 ft 95 kts 217°
2026-04-15 13:07 49.14553 -123.31422 2899 ft 97 kts 252°
2026-04-15 13:07 49.14357 -123.32425 2872 ft 104 kts 251°
2026-04-15 13:07 49.14079 -123.33423 2974 ft 96 kts 252°
2026-04-15 13:08 49.13860 -123.34383 3019 ft 92 kts 254°
2026-04-15 13:08 49.13681 -123.35315 3046 ft 90 kts 259°
2026-04-15 13:08 49.13546 -123.36269 3073 ft 92 kts 263°
2026-04-15 13:08 49.13489 -123.37210 3150 ft 88 kts 268°
2026-04-15 13:09 49.13445 -123.38154 3183 ft 89 kts 269°
2026-04-15 13:09 49.13438 -123.39097 3229 ft 89 kts 274°
2026-04-15 13:09 49.13502 -123.40050 3263 ft 90 kts 282°
2026-04-15 13:09 49.13559 -123.41004 3292 ft 92 kts 268°
2026-04-15 13:10 49.13486 -123.41959 3343 ft 91 kts 267°
2026-04-15 13:10 49.13462 -123.42916 3398 ft 89 kts 272°
2026-04-15 13:10 49.13469 -123.43874 3422 ft 91 kts 272°
2026-04-15 13:10 49.13471 -123.44841 3465 ft 91 kts 273°
2026-04-15 13:11 49.13470 -123.45830 3475 ft 93 kts 275°
2026-04-15 13:11 49.13497 -123.46819 3511 ft 92 kts 277°
2026-04-15 13:11 49.13541 -123.47815 3518 ft 95 kts 274°
2026-04-15 13:11 49.13549 -123.48802 3569 ft 93 kts 272°
2026-04-15 13:12 49.13577 -123.49818 3576 ft 94 kts 276°
2026-04-15 13:12 49.13634 -123.50818 3584 ft 96 kts 278°
2026-04-15 13:12 49.13699 -123.51828 3609 ft 95 kts 276°
2026-04-15 13:12 49.13732 -123.52837 3635 ft 96 kts 273°
2026-04-15 13:13 49.13759 -123.53866 3675 ft 94 kts 277°
2026-04-15 13:13 49.13823 -123.54871 3671 ft 97 kts 279°
2026-04-15 13:13 49.13927 -123.55906 3670 ft 98 kts 283°
2026-04-15 13:13 49.14058 -123.56946 3654 ft 101 kts 280°
2026-04-15 13:14 49.14138 -123.58003 3682 ft 98 kts 283°
2026-04-15 13:14 49.14290 -123.59065 3626 ft 105 kts 284°
2026-04-15 13:14 49.14451 -123.60109 3685 ft 99 kts 289°
2026-04-15 13:14 49.14705 -123.61040 3756 ft 94 kts 302°
2026-04-15 13:15 49.15039 -123.61926 3741 ft 97 kts 299°
2026-04-15 13:15 49.15230 -123.62904 3787 ft 97 kts 280°
2026-04-15 13:15 49.15343 -123.63927 3803 ft 97 kts 285°
2026-04-15 13:15 49.15496 -123.64916 3826 ft 96 kts 289°
2026-04-15 13:16 49.15703 -123.65891 3847 ft 96 kts 289°
2026-04-15 13:16 49.15906 -123.66856 3882 ft 95 kts 290°
2026-04-15 13:16 49.16141 -123.67776 3894 ft 94 kts 299°
2026-04-15 13:16 49.16462 -123.68688 3901 ft 97 kts 290°
2026-04-15 13:17 49.16626 -123.69689 3927 ft 98 kts 285°
2026-04-15 13:17 49.16804 -123.70690 3905 ft 101 kts 288°
2026-04-15 13:17 49.17026 -123.71705 3960 ft 99 kts 289°
2026-04-15 13:17 49.17246 -123.72712 4025 ft 97 kts 291°
2026-04-15 13:18 49.17482 -123.73684 4097 ft 95 kts 294°
2026-04-15 13:18 49.17786 -123.74555 4156 ft 95 kts 302°
2026-04-15 13:18 49.18163 -123.75404 4216 ft 94 kts 305°
2026-04-15 13:18 49.18509 -123.76233 4271 ft 94 kts 304°
2026-04-15 13:19 49.18900 -123.77052 4295 ft 97 kts 309°
2026-04-15 13:19 49.19341 -123.77911 4237 ft 106 kts 309°
2026-04-15 13:19 49.19663 -123.78840 4363 ft 97 kts 286°
2026-04-15 13:19 49.19759 -123.79940 4161 ft 117 kts 277°
2026-04-15 13:20 49.19894 -123.81183 4071 ft 116 kts 283°
2026-04-15 13:20 49.20000 -123.82382 4068 ft 110 kts 279°
2026-04-15 13:20 49.20073 -123.83521 4062 ft 108 kts 272°
2026-04-15 13:20 49.19944 -123.84628 4082 ft 106 kts 244°
2026-04-15 13:21 49.19471 -123.85500 4052 ft 110 kts 225°
2026-04-15 13:21 49.18856 -123.86223 3961 ft 116 kts 213°
2026-04-15 13:21 49.18186 -123.86833 4049 ft 103 kts 214°
2026-04-15 13:21 49.17603 -123.87460 4049 ft 105 kts 209°
2026-04-15 13:22 49.16866 -123.87624 3932 ft 108 kts 178°
2026-04-15 13:22 49.16150 -123.87516 3709 ft 101 kts 174°
2026-04-15 13:22 49.15443 -123.87423 3393 ft 104 kts 176°
2026-04-15 13:22 49.14754 -123.87376 3201 ft 94 kts 184°
2026-04-15 13:23 49.14061 -123.87376 2952 ft 104 kts 176°
2026-04-15 13:23 49.13353 -123.87281 2784 ft 100 kts 176°
2026-04-15 13:23 49.12670 -123.87212 2555 ft 95 kts 176°
2026-04-15 13:23 49.12033 -123.87287 2323 ft 93 kts 205°
2026-04-15 13:24 49.11410 -123.87494 2029 ft 96 kts 173°
2026-04-15 13:24 49.10752 -123.87379 1797 ft 93 kts 182°
2026-04-15 13:24 49.10101 -123.87299 1681 ft 95 kts 173°
2026-04-15 13:24 49.09454 -123.87130 1448 ft 94 kts 173°
2026-04-15 13:25 49.08778 -123.87031 1122 ft 98 kts 177°
2026-04-15 13:25 49.08108 -123.86972 836 ft 96 kts 180°
2026-04-15 13:25 49.07452 -123.86972 579 ft 92 kts 181°
2026-04-15 13:25 49.06810 -123.86988 315 ft 96 kts 185°
2026-04-15 13:26 49.06152 -123.87000 83 ft 89 kts 184°
2026-04-15 13:26 49.05653 -123.87132 75 ft 56 kts 227°
2026-04-15 13:26 49.05496 -123.87266 80 ft 15 kts 174°
2026-04-15 13:26 49.05386 -123.87308 81 ft 13 kts 250°
2026-04-15 13:27 49.05387 -123.87335 81 ft 0 kts 298°